Regional Weather Roundup
Issued by NWS

Current Version | Previous Version | Text Only | Print | Product List | Glossary On
Versions: 1 2 3 4 5 6 7 8 9 10 11 12 13 14 15 16 17 18 19 20 21 22 23 24 25 26 27 28 29 30 31 32 33 34 35 36 37 38 39 40 41 42 43 44 45 46 47 48 49 50
000
ASUS44 KFWD 011910
RWRTX
NORTH TEXAS HOURLY WEATHER ROUNDUP
NATIONAL WEATHER SERVICE FORT WORTH TX
200 PM CDT MON SEP 01 2014

NOTE: "FAIR" INDICATES FEW OR NO CLOUDS BELOW 12,000 FEET WITH NO
SIGNIFICANT WEATHER AND/OR OBSTRUCTIONS TO VISIBILITY.

TXZ118-119-012000-
DALLAS/FORT WORTH METROPLEX

CITY           SKY/WX    TMP DP  RH WIND       PRES   REMARKS
DFW AIRPORT    MOSUNNY   94  71  47 S15G24    29.89F HX 101
DALLAS LOVE    MOSUNNY   94  71  47 S14G24    29.90F HX 101
FTW MEACHAM    MOSUNNY   96  70  42 SE17G23   29.88F HX 102
DAL-EXECUTIVE  MOSUNNY   95  69  42 SE13G22   29.90F HX 100
FTW-ALLIANCE   MOSUNNY   95  70  44 SE17G25   29.88F HX 101
FTW-NAS-JRB    MOSUNNY   98  67  36 S16G25    29.92F HX 102
FTW-SPINKS     MOSUNNY   93  70  46 SE13G18   29.91F HX  99
ARLINGTON      MOSUNNY   94  69  44 SE13G23   29.90F HX  99
GRAND PRAIRIE  SUNNY     93  70  46 MISG      29.91F HX  99
ADDISON        PTSUNNY   91  68  46 SE10G21   29.91F HX  95
MESQUITE       PTSUNNY   93  66  40 SE13G18   29.92F HX  96
LANCASTER      MOSUNNY   93  69  44 S8G18     29.92F HX  98
$$

TXZ091>094-102>105-117-120-121-131>134-012000-
NORTH CENTRAL TEXAS

CITY           SKY/WX    TMP DP  RH WIND       PRES   REMARKS
SHRMAN/DENISON MOSUNNY   93  69  44 S13G21    29.91F HX  98
GAINESVILLE    MOSUNNY   90  73  56 SE15      29.91F HX  98
BOWIE          SUNNY     92  71  48 SE15      29.88F HX  99
BRIDGEPORT     SUNNY     94  65  38 S12G17    29.89F HX  96
DECATUR        SUNNY     93  68  43 SE13      29.89F HX  97
DENTON         MOSUNNY   93  70  46 SE16G23   29.88F HX  99
MCKINNEY       MOSUNNY   91  70  49 S14G25    29.91F HX  96
GREENVILLE     MOSUNNY   91  66  43 SE14      29.94F HX  94
ROCKWALL       PTSUNNY   92  71  51 S14       29.91F HX  98
TERRELL        PTSUNNY   93  71  48 S14       29.93F HX 100
WAXAHACHIE     MOSUNNY   92  66  41 S14G21    29.92F HX  95
CLEBURNE       MOSUNNY   93  72  49 S13G21    29.92S HX 100
GRANBURY       SUNNY     97  66  36 S13G24    29.89S HX 100
$$

TXZ083>090-098>101-113>116-127>130-139>142-154-155-012000-
WESTERN NORTH TEXAS

CITY           SKY/WX    TMP DP  RH WIND       PRES   REMARKS
WICHITA FALLS  SUNNY     97  68  38 S17G24    29.82F HX 102
WF-KICKAPOO    SUNNY     99  62  29 S12G24    29.84F HX 100
VERNON         SUNNY     96  66  37 S13G24    29.82F HX 100
ABILENE        SUNNY     97  65  34 S18       29.88F HX  99
ABILENE-DYESS  MOSUNNY   96  67  39 S18G32    29.86F HX 100
BRECKENRIDGE   SUNNY     97  62  31 S20       29.86F HAZE    HX  98
GRAHAM         SUNNY     97  64  33 SE10G21   29.84S HX  99
MINERAL WELLS  SUNNY     95  69  42 S14       29.86F HX 100
STEPHENVILLE   SUNNY     93  65  39 S13G21    29.92F HX  95
COMANCHE         N/A     96  62  32 S16G24    29.90F HX  97
BROWNWOOD      SUNNY     93  64  38 S15G22    29.90F HX  95
COLEMAN        SUNNY     94  61  32 S12G23    29.90F HX  94
BRADY          SUNNY     93  64  38 S12       29.91F HX  95
$$

TXZ143>147-156>162-174-175-012000-
CENTRAL TEXAS

CITY           SKY/WX    TMP DP  RH WIND       PRES   REMARKS
WACO           MOSUNNY   95  68  41 S17G24    29.90F HX  99
WACO-TSTC      MOSUNNY   95  66  38 S17       29.90F HX  98
WACO-MCGREGOR  MOSUNNY   95  70  43 S13G22    29.90F HX 101
HILLSBORO      SUNNY     94  67  41 S16G23    29.91F HX  98
CORSICANA      MOSUNNY   91  71  51 S12G21    29.94F HX  97
MEXIA          PTSUNNY   90  72  55 S12G20    29.92F HX  97
HEARNE           N/A     93  71  48 SE9       29.92F HX  99
CAMERON        MOSUNNY   94  70  45 SE13G21   29.91F HX  99
TEMPLE         MOSUNNY   97  66  36 S16G25    29.91S HX 100
KILLEEN        PTSUNNY   93  68  43 S12G22    29.91F HX  97
KILLEEN-SKYLRK MOSUNNY   97  68  38 S15G23    29.91F HX 101
FORT HOOD      MOSUNNY   97  67  37 SE13G22   29.91F HX 101
GATESVILLE     SUNNY     95  68  41 S12G22    29.92F HX  99
HAMILTON       SUNNY     94  64  37 S13G23    29.92F HX  96
LAMPASAS       SUNNY     96  71  43 SE9G17    29.91F HX 103
$$

TXZ095>097-106>112-122>126-135>138-148>153-164>167-012000-
EAST TEXAS

CITY           SKY/WX    TMP DP  RH WIND       PRES   REMARKS
PARIS          MOSUNNY   91  70  49 S14       29.95F HX  97
SULPHUR SPRNGS MOSUNNY   91  69  48 SE12G18   29.97F HX  95
MOUNT PLEASANT MOSUNNY   91  68  46 SW9       29.98F HX  95
GILMER         SUNNY     91  72  52 S8        29.98F HX  98
MINEOLA        PTSUNNY   90  72  55 S7        29.97S HX  96
TYLER          MOSUNNY   93  68  43 S10       29.96F HX  97
LONGVIEW       MOSUNNY   95  69  42 S9G20     29.96F HX 100
MARSHALL       MOSUNNY   96  74  49 S12       29.98F HX 106
ATHENS         PTSUNNY   90  72  55 S9G16     29.94F HX  96
PALESTINE      MOSUNNY   93  70  47 SE13      29.96F HX  99
JACKSONVILLE   PTSUNNY   89  69  51 S8        30.00S HX  94
HENDERSON      MOSUNNY   92  68  46 S7        29.98F HX  96
NACOGDOCHES    MOSUNNY   91  72  52 S9        29.96F HX  98
LUFKIN         MOSUNNY   93  73  52 S8        29.96F HX 102
$$

SUPPLEMENTAL OBSERVATIONS (CENTRAL)

CITY           SKY/WX    TMP DP  RH WIND       PRES   REMARKS
CADDO GRASSLND   N/A     91  68  46 S13G21      N/A  HX  95
PAT MAYSE LAKE   N/A     88  73  62 SE16        N/A  HX  96
GREENVILLE       N/A     91  68  46 S13         N/A  HX  95
CEDAR HILL       N/A     97  70  41 S12G20      N/A  HX 103
PALESTINE        N/A     91  70  49 S6          N/A  HX  97
MCGREGOR         N/A     97  68  38 S14G25      N/A  HX 101
TEMPLE           N/A     93  66  40 S15G23      N/A  HX  96
$$

SUPPLEMENTAL OBSERVATIONS (WEST)

CITY           SKY/WX    TMP DP  RH WIND       PRES   REMARKS
POSSUM KINGDOM   N/A     97  64  34 S13G24      N/A  HX  99
LBJ GRASSLAND    N/A     95  70  43 S10         N/A  HX 101
GRANBURY         N/A     97  66  36 S17G25      N/A  HX 100
HAMBY            N/A     99  64  32 S17G30      N/A  HX 101
IVIE RESERVOIR   N/A     99  63  30 S13G23      N/A  HX 100
COLORADO BEND    N/A     93  63  36 S9G20       N/A  HX  94
$$

SUPPLEMENTAL OBSERVATIONS (EAST)

CITY           SKY/WX    TMP DP  RH WIND       PRES   REMARKS
LUFKIN           N/A     93  72  49 MISG        N/A  HX 100
N SABINE NF      N/A     91  77  62 MISG        N/A  HX 105
$$

SUPPLEMENTAL OBSERVATIONS ARE A COLLECTION OF AUTOMATED INSTRUMENTS
THAT ARE MAINTAINED BY A VARIETY OF FEDERAL AND STATE AGENCIES.
CERTAIN ELEMENTS...SUCH AS HUMIDITY VALUES AND SUSTAINED WIND
SPEEDS...MAY BE APPROXIMATED.



USA.gov is the U.S. government's official web portal to all federal, state and local government web resources and services.